Simultaneous Nadir Overpasses (SNOs) Predictions

Prediction of SNOs between FY3D and TERRA Satellite Orbit:

Table of predicted SNOs for the next 14.0 days since TLE Epoch: 1/9/2025
Index Date (FY3D) Time (FY3D) Lat,Lon (FY3D) SZA (FY3D ) Date (TERRA) Time (TERRA) Lat,Lon (TERRA) SZA (TERRA ) Distance(km) Time Diff (sec)
1 01/09/2025 16:19:35 -76.90, 115.25 81.18 01/09/2025 16:20:27 -76.88, 115.30 81.19 2.12 52
2 01/09/2025 17:10:19 76.82, -77.10 98.74 01/09/2025 17:09:47 76.83, -77.23 98.75 3.53 32
3 01/12/2025 03:32:01 -76.90, -52.81 81.56 01/12/2025 03:32:19 -76.88, -52.71 81.58 3.01 18
4 01/12/2025 04:22:45 76.82, 114.83 98.36 01/12/2025 04:21:39 76.82, 114.72 98.36 2.76 66
5 01/14/2025 13:53:43 76.92, -28.25 98.05 01/14/2025 13:54:48 76.93, -28.22 98.05 1.21 65
6 01/14/2025 14:44:26 -76.87, 139.29 82.02 01/14/2025 14:44:10 -76.90, 139.33 81.99 3.45 16
7 01/17/2025 01:06:08 76.90, 163.78 97.56 01/17/2025 01:06:39 76.90, 163.69 97.56 2.39 31
8 01/17/2025 01:56:52 -76.89, -28.84 82.47 01/17/2025 01:56:01 -76.88, -28.74 82.47 2.64 51
9 01/19/2025 11:27:57 -77.29,-173.28 82.53 01/19/2025 11:29:05 -77.17,-171.02 82.68 57.17 68
10 01/19/2025 12:18:33 76.89, -4.22 97.04 01/19/2025 12:18:29 76.89, -4.34 97.05 3.19 4
11 01/19/2025 13:09:05 -76.35, 165.26 83.52 01/19/2025 13:08:01 -76.39, 161.64 83.45 95.02 64
12 01/21/2025 22:40:13 -76.94, 20.19 83.44 01/21/2025 22:40:58 -76.95, 20.17 83.44 0.64 45



Historial Predications of SNOs between FY3D and TERRA
